Home > Weather > Seeb > Past weeks

Flag for Oman Past Weather in Seeb, Oman — Yesterday and Last 2 Weeks

Now
106 °F

Sunny.


Feels Like: 104 °F
Forecast: 98 / 108 °F
Wind: 10 mph from Northeast

Location: International Airport

Current Time: May 30, 2016 at 2:57:46 PM

Latest Report: May 30, 2016 at 1:50 PM


Visibility: 10 mi

Pressure: 29.53 "Hg

Humidity: 18%

Dew Point: 54 °F

Location of SeebLocation

Past Weather in Seeb — Graph

°F

Seeb Temperature Yesterday

Maximum temperature yesterday: 97 °F (at 4:50 PM)
Minimum temperature yesterday: 88 °F (at 2:50 AM)
Average temperature yesterday: 92 °F

High & Low Weather Summary for the Past Weeks

 TemperatureHumidityPressure
High113 °F (May 21, 10:50 AM)79% (May 24, 7:50 AM)29.74 "Hg (May 24, 7:50 AM)
Low84 °F (May 28, 2:50 AM)13% (May 18, 6:50 PM)29.47 "Hg (May 20, 3:50 PM)
Average96 °F43%29.58 "Hg
* Reported May 15 12:50 PM — May 30 12:50 PM, Seeb, Weather by CustomWeather, © 2016

Note: Actual official high and low records may vary slightly from our data, if they occured in-between our weather recording intervals... More about our weather records

Advertising

Seeb Weather History for the Previous 24 Hours

Scroll right to see more
 ConditionsComfort  
Time TempWeatherWind HumidityBarometerVisibility
12:50 PM
Mon, May 30
104 °FClear.12 mph26%29.53 "Hg6 mi
11:50 AM104 °FClear.10 mph28%29.53 "Hg6 mi
10:50 AM102 °FClear.12 mph31%29.56 "Hg5 mi
9:50 AM100 °FClear.10 mph33%29.56 "Hg5 mi
8:50 AM97 °FClear.9 mph44%29.56 "Hg5 mi
7:50 AM99 °FClear.6 mph37%29.56 "Hg5 mi
3:50 AM91 °FClear.5 mph36%29.53 "Hg10 mi
2:50 AM99 °FClear.10 mph25%29.53 "Hg10 mi
1:50 AM99 °FClear.10 mph24%29.53 "Hg10 mi
12:50 AM90 °FClear.1 mph46%29.53 "Hg10 mi
11:50 PM
Sun, May 29
91 °FClear.No wind34%29.56 "Hg10 mi
10:50 PM91 °FClear.No wind56%29.56 "Hg10 mi
9:50 PM93 °FPassing clouds.3 mph49%29.59 "HgN/A
8:50 PM95 °FClear.3 mph47%29.59 "Hg10 mi
7:50 PM95 °FClear.5 mph36%29.59 "Hg10 mi
6:50 PM97 °FClear.6 mph32%29.59 "Hg6 mi
5:50 PM97 °FClear.7 mph34%29.59 "Hg5 mi
4:50 PM97 °FClear.7 mph39%29.56 "Hg5 mi
3:50 PM95 °FClear.9 mph50%29.59 "Hg5 mi
2:50 PM95 °FHaze.9 mph60%29.59 "Hg5 mi
Weather by CustomWeather, © 2016

See weather overviewHow to use our weather pages